Temp
3 5 5 5 5 6 6 6 2 6 7 4 3 4 4 5 6 7 7 6 6 6 6 6 6 6 7 8 7 7 6 4 5 6 6 6 6 5 4 4 4 2 3 8
2 3 5 5 5 5 5 5 5 7 7 4 4 5 5 5 6 6 7 7 7 7 6 6 6 6 7 7 7 7 6 4 3 6 6 6 6 5 4 3 2 3 6 9
2 2 4 5 5 5 5 4 1 5 6 4 5 4 4 5 6 7 7 7 7 7 7 6 6 6 6 7 8 8 7 4 4 5 5 4 4 4 4 4 4 4 5 6
1 1 3 4 5 4 4 3 2 2 2 3 2 4 5 5 5 6 7 7 7 7 6 6 6 6 6 7 8 7 6 3 2 5 5 4 5 5 4 3 5 5 6 5
-0 0 1 3 4 4 4 1 1 2 2 2 2 4 5 6 6 6 7 7 7 7 6 6 5 6 6 6 7 6 5 4 2 2 5 4 4 4 4 5 5 5 5 6
-0 0 -0 -0 2 4 1 0 1 1 2 1 3 3 5 6 6 6 6 7 7 6 6 6 7 8 8 7 6 5 6 4 1 3 4 4 4 4 5 5 4 6 5 7
-0 -0 -0 -1 -1 1 1 -1 0 1 1 1 2 2 2 5 5 7 6 7 8 7 7 7 7 7 6 6 5 6 5 5 3 1 3 4 8 6 5 6 6 5 6 6
-0 -0 -0 -1 -1 -1 -0 0 0 0 2 2 1 2 2 4 6 6 6 6 7 7 7 5 6 7 8 6 5 6 7 5 3 3 5 5 8 6 5 6 8 6 6 7
-0 -1 -0 -1 -1 -1 -1 -1 -0 -1 -0 -0 1 3 3 2 3 3 6 6 6 7 4 5 5 4 6 5 6 5 5 5 5 5 5 5 8 8 8 8 8 8 6 6
-1 -1 -1 -1 -1 -1 -1 -1 -1 -1 -1 -0 0 0 2 3 3 1 3 5 6 6 4 5 5 4 5 5 5 6 5 5 6 5 6 5 6 8 8 8 9 9 8 8
-1 -1 -1 -1 -1 -1 -1 -1 -2 -2 -2 -0 -0 0 1 2 3 3 3 4 4 3 5 6 5 4 4 4 5 6 6 5 6 6 5 4 7 6 8 8 9 9 8 8
-1 -1 -1 -1 -1 -1 -1 -2 -2 -2 -3 -1 0 -1 -1 -1 0 -1 1 3 3 5 3 2 2 4 3 4 7 4 5 4 5 5 5 6 7 9 10 9 8 9 9 8
-1 -1 -1 -1 -1 -1 -2 -2 -2 -2 -2 -2 -2 1 -0 0 0 1 -1 2 4 4 4 3 3 5 3 5 5 4 5 5 5 5 6 5 8 9 9 8 8 9 9 8
-1 -1 -1 -1 -1 -1 -2 -2 -2 -3 -3 -3 -1 -0 0 0 -0 -0 -0 2 2 1 2 4 4 4 4 3 4 4 4 5 5 5 6 7 7 8 8 8 8 8 8 8
-1 -1 -1 -1 -1 -1 -2 -2 -3 -3 -3 -2 -2 -2 -0 -1 -1 -1 -0 0 -1 -2 0 4 4 3 3 2 2 2 4 4 5 5 6 6 7 8 7 7 7 8 8 8
-1 -1 -1 -1 -1 -2 -2 -3 -2 -3 -3 -3 -3 -1 -1 -0 -1 -1 -2 -2 -1 -2 0 4 5 6 5 2 4 5 6 6 6 6 6 6 7 6 7 6 6 7 7 7
-1 -1 -1 -1 -2 -2 -2 -2 -3 -3 -3 -3 -5 -5 -0 -0 -1 -2 -2 -3 -1 -1 -0 4 4 5 5 3 3 5 6 6 6 6 6 6 6 6 6 6 6 6 6 6
-1 -1 -1 -2 -2 -2 -2 -2 -2 -2 -3 -4 -4 -5 -2 -0 0 1 0 -0 -1 1 2 4 3 4 4 4 4 4 4 5 5 5 4 4 5 5 5 6 6 6 6 6
-1 -1 -1 -2 -2 -2 -2 -2 -2 -3 -3 -3 -3 -2 -1 1 1 1 1 1 2 2 4 4 4 4 5 4 4 4 4 4 4 4 4 4 3 3 3 4 4 5 6 5
-1 -2 -2 -2 -2 -3 -2 -2 -3 -3 -3 -3 -3 -2 -1 -0 1 2 2 1 3 3 4 4 5 4 2 2 3 2 3 3 3 2 3 2 3 2 3 3 3 4 5 5
-1 -2 -2 -3 -3 -2 -2 -2 -1 -2 -1 -2 -2 -2 -0 1 2 4 3 3 2 4 4 5 4 5 0 0 1 2 2 2 2 1 1 1 0 1 2 3 3 4 4 4
-2 -3 -3 -3 -3 -2 -2 -1 -1 -1 -0 0 0 0 0 1 3 4 3 3 2 3 3 4 4 1 -1 -0 0 1 1 1 1 1 1 1 1 1 2 3 3 4 4 4
-3 -3 -3 -3 -2 -2 -1 -1 -1 -0 -1 -1 -1 -0 1 2 3 2 2 3 3 1 3 3 -0 -2 -1 -1 -1 -1 -0 0 1 1 1 1 2 1 2 3 3 4 4 4
-3 -4 -5 -4 -3 -2 -2 -2 -2 -1 -2 -2 -1 -0 1 1 2 2 2 1 2 3 3 1 -1 -1 -1 -1 -1 0 0 0 0 1 1 2 2 2 2 2 3 3 3 3
-3 -4 -6 -5 -2 -2 -2 -1 -2 -1 -2 -2 -2 -0 1 1 1 2 1 3 4 4 2 -3 -1 -1 -1 -0 0 0 0 0 0 0 1 1 2 2 2 2 2 2 2 1
-3 -5 -5 -4 -5 -3 -2 -1 -1 -2 -2 -2 -2 -0 1 2 2 2 3 3 2 1 -4 -0 -0 -0 -0 0 0 0 0 0 1 1 1 1 1 1 1 1 1 1 1 1
-4 -5 -4 -4 -4 -4 -3 -2 -2 -2 -2 -1 -1 1 2 1 2 1 -0 1 0 1 1 1 1 1 1 1 1 0 0 1 1 1 1 1 1 1 1 1 1 0 0 0
Height
1489 1485 1480 1474 1468 1465 1462 1459 1462 1459 1455 1456 1458 1461 1460 1457 1456 1454 1454 1456 1458 1462 1464 1467 1468 1470 1469 1469 1470 1475 1478 1490 1498 1494 1495 1494 1494 1497 1502 1510 1516 1523 1518 1489
1490 1486 1481 1475 1469 1465 1462 1461 1462 1461 1457 1466 1466 1463 1461 1460 1457 1456 1455 1455 1456 1459 1463 1467 1468 1469 1469 1469 1470 1474 1477 1491 1506 1497 1498 1496 1495 1498 1500 1507 1513 1517 1503 1483
1491 1485 1481 1475 1470 1465 1464 1463 1466 1464 1462 1464 1466 1466 1465 1462 1459 1457 1457 1457 1457 1458 1462 1464 1468 1469 1470 1470 1471 1471 1474 1486 1491 1493 1492 1493 1497 1496 1498 1500 1509 1505 1499 1489
1491 1486 1480 1476 1470 1466 1465 1465 1470 1471 1471 1467 1468 1466 1464 1462 1462 1458 1457 1457 1457 1459 1464 1465 1468 1468 1470 1471 1471 1473 1476 1491 1495 1488 1488 1491 1490 1490 1495 1498 1495 1497 1487 1489
1492 1486 1480 1476 1471 1467 1466 1468 1471 1470 1469 1469 1468 1466 1464 1462 1460 1460 1458 1459 1459 1458 1462 1462 1467 1466 1469 1470 1473 1474 1477 1490 1493 1494 1487 1490 1491 1488 1489 1490 1489 1490 1489 1483
1492 1487 1482 1477 1473 1469 1467 1470 1471 1472 1470 1469 1469 1468 1464 1461 1460 1460 1458 1458 1459 1461 1461 1461 1461 1462 1463 1464 1470 1475 1477 1487 1497 1496 1489 1490 1490 1479 1479 1481 1482 1480 1487 1472
1492 1488 1484 1480 1476 1473 1472 1471 1471 1472 1471 1470 1470 1467 1466 1463 1461 1459 1458 1458 1457 1461 1461 1462 1464 1464 1465 1467 1469 1470 1478 1482 1492 1502 1493 1494 1466 1466 1468 1471 1471 1474 1471 1467
1490 1488 1485 1482 1479 1476 1474 1472 1472 1473 1471 1469 1469 1468 1466 1462 1460 1460 1459 1458 1458 1460 1461 1465 1469 1468 1468 1471 1472 1472 1471 1479 1493 1495 1487 1478 1460 1464 1467 1467 1462 1464 1466 1462
1489 1487 1485 1483 1480 1477 1475 1474 1473 1473 1474 1471 1470 1468 1467 1466 1464 1461 1459 1459 1459 1460 1462 1466 1470 1477 1470 1475 1474 1473 1474 1474 1482 1486 1487 1480 1461 1457 1458 1459 1465 1459 1460 1459
1488 1486 1484 1482 1480 1477 1476 1475 1474 1473 1472 1468 1468 1468 1467 1466 1465 1464 1460 1458 1460 1460 1463 1466 1470 1473 1466 1472 1472 1471 1475 1477 1477 1480 1476 1473 1458 1456 1457 1462 1465 1458 1457 1457
1485 1483 1482 1480 1479 1477 1476 1475 1473 1473 1471 1464 1463 1464 1465 1465 1464 1462 1461 1462 1459 1460 1462 1459 1461 1467 1464 1467 1466 1463 1466 1472 1470 1473 1478 1478 1453 1456 1459 1456 1454 1454 1453 1453
1484 1480 1479 1477 1476 1475 1473 1472 1472 1471 1470 1463 1460 1456 1457 1460 1462 1465 1459 1456 1454 1452 1456 1460 1461 1460 1462 1461 1456 1462 1466 1462 1466 1466 1463 1452 1451 1451 1452 1451 1450 1450 1450 1450
1482 1479 1476 1475 1474 1472 1472 1470 1469 1467 1465 1456 1450 1445 1448 1449 1450 1455 1459 1453 1451 1450 1451 1450 1453 1454 1455 1456 1455 1456 1455 1453 1456 1457 1447 1449 1450 1450 1450 1448 1448 1448 1448 1447
1480 1477 1474 1472 1471 1470 1469 1467 1466 1466 1465 1458 1443 1442 1442 1444 1443 1443 1446 1448 1447 1448 1448 1447 1448 1451 1448 1453 1449 1450 1448 1450 1451 1451 1446 1445 1445 1446 1447 1447 1447 1446 1445 1443
1477 1474 1471 1470 1467 1465 1463 1461 1460 1461 1464 1456 1443 1438 1433 1434 1436 1439 1442 1445 1448 1452 1447 1441 1443 1442 1446 1448 1448 1448 1441 1442 1446 1446 1442 1443 1443 1443 1443 1441 1441 1441 1440 1439
1474 1471 1468 1466 1462 1459 1458 1458 1458 1457 1458 1456 1447 1437 1430 1432 1431 1433 1436 1440 1446 1448 1448 1436 1435 1434 1437 1446 1445 1434 1434 1435 1436 1438 1440 1440 1440 1439 1438 1438 1436 1435 1435 1435
1471 1468 1465 1461 1459 1458 1458 1459 1458 1457 1456 1456 1449 1437 1429 1427 1427 1428 1429 1434 1441 1444 1445 1433 1431 1431 1433 1438 1439 1429 1430 1432 1434 1435 1436 1435 1435 1435 1434 1433 1432 1431 1431 1431
1467 1464 1461 1458 1457 1457 1456 1455 1456 1456 1456 1454 1452 1442 1431 1425 1424 1425 1427 1433 1439 1435 1433 1429 1425 1429 1432 1434 1427 1428 1429 1430 1431 1432 1432 1432 1430 1429 1428 1427 1427 1426 1426 1427
1464 1460 1457 1457 1456 1455 1455 1453 1454 1454 1457 1452 1450 1442 1431 1422 1421 1420 1425 1427 1431 1428 1425 1422 1422 1427 1427 1423 1423 1425 1427 1427 1428 1429 1429 1427 1426 1424 1423 1422 1422 1422 1423 1423
1461 1457 1457 1456 1455 1453 1453 1451 1452 1452 1451 1450 1445 1438 1431 1423 1418 1418 1422 1420 1418 1420 1418 1418 1420 1423 1420 1420 1422 1424 1425 1425 1424 1424 1423 1423 1421 1420 1419 1419 1419 1419 1419 1419
1460 1458 1455 1454 1453 1452 1451 1451 1451 1449 1447 1444 1436 1432 1427 1419 1416 1412 1414 1414 1416 1415 1417 1417 1420 1415 1417 1419 1421 1422 1422 1422 1421 1421 1421 1420 1419 1417 1415 1414 1413 1414 1415 1415
1460 1458 1454 1453 1451 1451 1452 1450 1449 1447 1442 1437 1434 1429 1425 1419 1415 1414 1416 1416 1417 1419 1418 1419 1419 1416 1418 1418 1419 1420 1420 1419 1419 1419 1419 1418 1416 1413 1411 1410 1409 1410 1411 1411
1456 1456 1455 1454 1454 1453 1451 1450 1448 1444 1441 1439 1437 1432 1424 1420 1418 1416 1416 1415 1418 1421 1418 1416 1417 1417 1418 1419 1419 1419 1418 1418 1418 1417 1417 1416 1413 1411 1409 1409 1408 1407 1408 1409
1458 1458 1458 1456 1455 1452 1450 1451 1448 1445 1442 1440 1437 1431 1426 1422 1419 1418 1418 1420 1418 1418 1417 1417 1414 1416 1417 1418 1418 1418 1418 1418 1417 1416 1416 1414 1412 1410 1408 1407 1407 1406 1407 1408
1459 1459 1460 1456 1451 1450 1449 1448 1446 1443 1441 1439 1435 1431 1426 1421 1420 1418 1420 1418 1414 1412 1412 1413 1411 1414 1415 1417 1417 1418 1418 1418 1417 1416 1414 1412 1411 1410 1409 1408 1407 1407 1407 1407
1459 1457 1455 1451 1452 1447 1446 1445 1443 1441 1439 1437 1435 1430 1423 1419 1418 1417 1415 1416 1416 1411 1408 1407 1410 1413 1415 1417 1417 1417 1417 1417 1416 1415 1413 1412 1411 1409 1408 1407 1406 1406 1405 1405
1455 1451 1450 1450 1449 1446 1443 1443 1442 1440 1440 1437 1433 1426 1419 1420 1416 1417 1415 1412 1407 1404 1405 1408 1410 1412 1415 1416 1417 1417 1417 1416 1415 1414 1413 1411 1410 1409 1408 1407 1406 1404 1404 1403
Wind_Speed
31 30 29 29 26 19 16 5 3 13 11 6 4 2 5 7 5 5 3 4 3 3 2 3 2 5 2 6 6 3 2 4 3 1 1 1 1 3 4 3 4 1 1 4
29 31 29 27 25 20 15 4 3 13 9 3 3 3 4 2 5 4 3 2 1 1 4 4 3 3 1 8 4 6 5 1 3 1 1 1 3 3 3 3 2 5 3 3
29 32 30 25 24 16 11 3 3 5 7 5 2 3 4 4 3 2 2 2 2 3 3 4 4 3 2 7 3 8 5 3 4 4 4 3 3 4 4 4 3 3 5 5
27 31 29 24 22 13 8 4 2 2 2 3 3 2 0 2 4 4 3 3 1 3 3 2 2 2 3 3 5 3 3 3 2 2 3 3 3 4 8 7 4 5 3 5
27 28 27 25 19 13 6 3 3 3 2 5 3 2 2 2 2 1 3 4 1 1 4 5 7 5 2 4 1 3 2 3 2 3 1 4 4 7 8 10 7 9 7 16
23 25 25 25 20 17 7 6 3 2 4 4 1 3 3 2 1 0 2 3 3 3 2 2 4 4 7 7 7 3 5 5 2 3 2 4 5 11 13 6 5 9 8 10
21 21 23 21 19 17 12 9 4 2 2 2 1 4 3 4 5 1 1 2 2 6 9 13 11 12 11 8 3 5 5 4 2 2 2 1 3 3 8 15 5 11 6 8
17 15 19 17 18 16 13 10 4 3 2 3 4 6 4 9 5 2 2 1 3 10 2 3 3 1 1 3 4 2 2 4 2 1 3 6 1 3 6 6 3 11 13 13
16 15 12 15 15 17 14 9 9 2 3 2 3 4 4 3 3 5 2 1 6 6 2 2 4 4 4 3 1 4 4 4 3 3 2 3 4 2 4 3 0 5 10 8
17 15 15 13 13 15 13 9 12 4 3 3 1 3 3 4 3 2 4 2 3 3 2 2 3 4 4 5 7 5 3 2 4 4 3 6 7 4 3 3 3 2 5 9
17 14 11 14 8 13 13 11 12 10 5 14 14 11 8 8 6 2 3 0 2 2 3 3 3 3 5 4 5 6 8 7 4 5 3 7 6 5 5 3 2 8 9 7
18 16 9 14 8 8 13 12 10 13 11 12 25 32 31 28 22 9 5 4 3 8 3 1 2 2 2 5 3 2 4 6 5 7 5 5 6 2 6 12 14 11 7 8
18 20 11 10 14 12 15 12 12 15 10 25 15 3 5 12 19 29 10 6 5 2 2 5 2 3 3 4 5 4 3 6 3 2 3 8 17 11 4 6 3 5 9 12
17 18 18 10 14 17 17 16 14 13 9 5 8 8 9 9 9 22 34 29 7 7 4 4 2 3 5 3 2 3 5 7 5 4 5 6 1 8 6 9 13 14 15 15
18 21 15 11 15 22 21 17 17 15 10 4 13 27 12 7 21 18 16 21 26 15 7 3 3 4 4 0 1 3 7 6 4 4 6 2 6 10 16 19 18 18 18 15
18 20 13 18 23 12 8 3 2 7 2 5 4 9 11 10 8 20 29 32 17 12 7 5 5 5 6 3 4 5 10 8 7 4 2 10 15 15 10 12 13 9 11 12
17 16 18 21 10 7 3 2 2 9 8 3 6 7 6 11 4 8 14 24 15 9 9 5 5 6 10 3 3 6 11 12 8 7 10 11 6 7 17 18 15 13 12 11
18 21 18 11 6 5 3 4 6 7 4 3 3 4 6 6 5 5 9 13 14 10 6 5 3 7 3 3 5 9 9 7 6 8 6 11 19 20 19 15 13 11 11 11
22 19 12 7 3 2 2 5 8 8 5 1 2 3 3 5 5 2 7 8 4 7 3 4 6 2 4 4 7 11 8 4 5 11 14 14 11 14 12 11 10 11 11 12
19 9 3 2 2 6 8 2 1 5 3 5 4 5 3 5 0 0 8 7 2 2 3 8 2 3 3 5 6 7 5 5 7 10 9 13 13 12 11 12 13 13 11 12
10 5 3 6 9 5 1 2 3 3 3 5 7 8 4 5 3 2 2 2 2 1 1 1 2 3 3 6 5 4 5 6 6 8 8 11 14 15 15 14 12 14 13 13
15 10 10 5 3 1 1 2 2 3 2 3 6 7 7 7 5 2 3 2 1 1 2 1 2 1 5 4 3 2 3 4 3 4 7 9 11 11 11 10 7 8 10 10
7 2 3 2 0 2 0 2 2 2 7 6 11 6 5 5 4 1 0 2 2 2 2 3 2 6 6 4 3 3 4 2 2 3 4 6 7 6 7 6 4 2 2 4
3 3 5 1 2 2 1 2 2 5 7 14 17 7 4 3 2 1 1 1 1 0 2 4 3 10 8 6 6 6 7 7 7 5 5 6 6 7 7 5 4 4 3 6
2 1 2 3 5 6 9 11 8 10 11 10 9 8 5 2 2 1 1 1 3 3 3 2 11 13 9 6 5 5 6 7 8 9 10 9 6 4 5 5 4 5 5 7
2 3 2 5 4 5 3 6 8 8 11 13 5 3 3 3 1 2 4 2 4 3 3 8 16 14 10 5 4 3 4 6 8 8 9 10 10 9 8 6 6 5 5 6
4 5 9 12 14 12 8 5 5 9 8 2 3 3 2 2 1 2 2 4 3 3 7 16 14 14 10 5 2 2 4 6 7 8 8 9 9 9 9 8 7 6 5 6
Wind_Direction
358 5 2 360 350 356 2 19 36 3 34 44 30 21 339 343 348 17 56 113 119 115 105 93 109 170 211 176 150 96 99 117 131 127 144 232 119 148 139 138 213 76 118 274
357 354 2 357 357 350 7 25 7 28 45 68 354 334 320 312 354 358 14 64 76 127 138 117 129 147 324 157 151 159 175 70 88 49 30 24 194 179 126 104 87 194 155 255
357 352 355 357 360 351 6 8 41 16 49 79 130 18 343 334 3 330 29 118 76 100 74 34 151 128 36 203 171 127 103 104 148 180 191 132 181 181 182 138 146 173 232 293
354 350 348 356 2 358 3 41 73 30 334 360 357 301 199 345 358 353 22 43 169 138 101 70 115 107 111 101 159 71 100 117 102 231 183 161 198 185 187 198 175 177 251 224
347 347 349 354 1 9 29 62 45 359 296 310 309 294 359 12 323 340 4 121 73 163 155 183 195 143 153 177 99 114 36 114 89 328 79 205 247 235 210 218 223 254 268 288
345 348 351 357 6 19 57 56 49 10 308 336 48 331 314 311 235 297 141 148 106 58 293 238 255 184 160 165 144 135 135 139 88 279 5 321 286 228 203 198 202 201 206 232
340 350 358 358 9 25 33 36 42 2 292 2 320 332 331 319 331 203 314 55 124 151 102 96 96 88 94 112 77 144 139 113 93 229 360 251 250 160 181 208 202 215 257 260
334 354 358 0 7 9 21 27 50 30 287 326 322 345 316 305 304 308 268 178 147 160 138 77 72 111 111 68 46 199 168 121 114 110 254 286 220 176 150 179 231 204 224 256
325 349 348 9 359 2 9 22 23 112 326 262 307 308 312 310 315 331 280 186 166 165 91 96 158 186 178 201 116 11 77 90 127 186 263 245 246 193 181 229 35 188 202 250
323 313 336 357 8 355 351 356 4 6 266 252 209 232 297 300 282 254 293 193 187 199 131 140 174 227 172 164 178 172 145 151 190 194 248 284 245 192 143 141 196 209 242 260
326 316 308 326 333 360 346 334 335 345 291 281 264 244 239 274 263 237 350 78 226 93 199 182 190 180 214 145 189 179 182 176 190 197 214 263 180 110 177 179 276 307 306 287
335 327 294 344 308 353 338 321 315 308 287 272 292 285 269 255 250 283 275 284 271 211 130 193 122 177 150 184 200 172 203 179 178 190 210 241 198 208 283 289 290 295 288 319
329 341 292 310 331 338 338 306 295 292 283 300 278 313 243 278 250 232 218 239 248 186 269 170 175 216 138 169 226 187 235 182 199 155 234 226 245 281 346 12 325 308 304 311
324 322 326 311 336 321 320 298 291 291 284 272 279 298 261 284 266 228 221 227 209 322 326 216 176 199 195 199 186 183 197 146 185 255 287 279 264 163 336 317 314 311 304 296
316 317 330 331 316 307 301 291 282 271 247 275 292 294 304 288 249 233 214 231 245 254 286 196 210 164 137 305 96 238 192 180 172 215 203 225 255 300 312 310 302 293 295 290
313 320 326 322 314 315 294 285 59 107 269 292 304 313 299 313 249 227 234 232 235 208 221 220 216 192 160 155 204 235 207 198 194 180 233 279 287 292 297 315 309 295 283 280
318 325 320 320 318 314 230 260 270 316 321 279 298 304 281 308 252 211 223 208 204 206 224 261 197 179 172 150 213 201 190 194 206 244 268 281 278 274 290 303 299 286 280 274
324 322 315 319 298 297 259 276 297 310 281 256 292 276 292 196 181 168 160 159 191 223 210 253 157 124 111 245 222 174 185 205 246 236 248 283 294 296 296 289 288 278 269 269
328 325 312 297 292 272 308 316 285 279 245 251 250 270 282 311 159 144 156 152 171 222 221 225 150 135 210 229 192 192 206 215 211 256 288 300 295 296 298 292 272 268 267 271
330 336 328 271 281 308 310 353 249 211 220 223 252 252 268 297 260 87 165 193 189 155 244 128 129 240 209 182 169 193 231 270 288 301 317 313 317 315 303 294 272 260 264 274
343 324 270 291 307 314 298 255 226 207 238 222 247 244 271 270 232 173 174 172 144 127 132 132 176 247 165 173 193 238 271 287 296 299 312 316 313 314 311 306 275 247 259 273
323 300 289 324 0 319 292 256 272 232 271 300 308 302 275 299 340 56 9 79 19 152 136 161 239 232 143 162 193 245 288 300 300 298 311 326 321 316 315 314 290 258 265 261
325 343 323 332 2 286 273 326 287 282 347 350 327 317 302 312 352 27 8 125 155 175 174 225 220 158 150 141 125 86 41 16 335 320 318 317 344 343 343 337 319 301 247 259
331 4 329 147 311 263 242 226 274 301 304 320 320 290 283 297 317 305 66 314 9 13 256 242 184 173 155 126 95 87 68 58 49 36 10 4 9 3 15 16 2 1 323 294
305 285 254 234 251 270 276 288 287 306 300 311 309 294 247 262 275 244 149 192 236 228 231 230 173 166 150 125 109 91 66 54 47 44 41 33 21 355 328 323 307 306 298 291
252 238 270 258 306 289 307 309 306 326 322 315 262 275 279 256 223 202 222 167 233 251 214 166 163 165 156 133 107 85 52 33 25 21 21 20 20 17 8 352 330 313 303 292
227 243 241 255 270 263 276 280 298 318 321 286 305 249 253 304 235 255 217 207 224 209 178 168 172 170 172 168 132 67 28 15 12 7 1 360 360 357 350 348 347 328 305 296